sat.trackr.live / text

‹ back to catalog

BADR-5

NORAD 36592 · 2010-025A

PAYLOAD ACTIVE UNKNOWN

§ Identity

Operator
Country
AB
Launch date
2010-06-03
Launch site
TYMSC
Launch vehicle
Mass (kg)
RCS (m²)
15.85

Purposes: comms

External: N2YO · Heavens-Above · Gunter

§ Orbital elements

Epoch: 2026-09-20T03:22:49.774368Z

Period
1,436.13 min
Inclination
0.0434°
Eccentricity
0.0007706
Mean motion
1.00269290 rev/d
Perigee alt
35,754.8 km
Apogee alt
35,819.8 km
Semi-major
42,165.4 km
B*
0.0000e+0
RAAN
127.7982°
Arg perigee
86.0488°
Mean anomaly
226.4318°
Rev number
5,416

§ Raw data

BADR-51 36592U 10025A   26263.14085387  .00000149  00000+0  00000+0 0  99902 36592   0.0434 127.7982 0007706  86.0488 226.4318  1.00269290 54169

JSON: /api/v1/satellites/36592 · /tle

For live sub-satellite position, see the globe view (requires WebGL).

§ Visibility from observer

Set your observer location to see the next 7 days of passes ≥ 10°. The values pass through the URL so the page stays shareable.

No JS? Fill the form by hand. The geolocation button needs JavaScript.